This demonstration page uses our WeatherBlox Daily Observations layout. Learn more.

Left ArrowRight Arrow

Hourly Observations for June 13, 2020

Temp ( °F °C ) Dew Point ( °F °C ) Humidity (%) Winds ( mph kmh ) Pressure ( in mb ) Visibility ( mi km ) Precip ( " mm )
12:56 am 00:56 Clear 65 18.4 60 15.4 83 83 Calm 30.15 1021 10 16 0.00 0.00
1:56 am 01:56 Clear 64 18 60 15.4 85 85 Calm 30.14 1021 10 16 0.00 0.00
2:56 am 02:56 Clear 62 16.9 58 14.5 86 86 Calm 30.14 1021 10 16 0.00 0.00
3:56 am 03:56 Clear 60 15.8 57 13.8 88 88 Calm 30.14 1021 10 16 0.00 0.00
4:56 am 04:56 Clear 60 15.8 58 14.2 90 90 Calm 30.14 1021 10 16 0.00 0.00
5:56 am 05:56 Sunny 65 18.4 57 13.7 74 74 SE 3 6 30.15 1021 10 16 0.00 0.00
6:56 am 06:56 Sunny 68 20 58 14.3 70 70 Calm 30.15 1021 10 16 0.00 0.00
7:56 am 07:56 Sunny 71 21.7 59 15.1 66 66 SSE 7 11 30.14 1021 10 16 0.00 0.00
8:56 am 08:56 Sunny 76 24.3 61 16.3 61 61 SE 9 15 30.13 1020 9 14 0.00 0.00
9:56 am 09:56 Sunny 81 27 63 17.4 56 56 SSE 13 20 30.12 1020 10 16 0.00 0.00
10:56 am 10:56 Sunny 83 28.4 63 17.3 51 51 SSE 14 22 30.11 1020 10 16 0.00 0.00
11:56 am 11:56 Sunny 85 29.7 65 18.4 51 51 SSE 15 24 30.10 1019 10 16 0.00 0.00
12:56 pm 12:56 Mostly Sunny 87 30.4 65 18.1 48 48 ESE 15 24 30.08 1019 10 16 0.00 0.00
1:56 pm 13:56 Sunny 88 31.3 65 18.6 47 47 ESE 17 28 30.06 1018 10 16 0.00 0.00
2:56 pm 14:56 Sunny 89 31.9 64 17.7 43 43 SE 20 31 30.04 1017 10 16 0.00 0.00
3:56 pm 15:56 Sunny 90 32.1 64 17.5 42 42 SE 16 26 30.02 1017 10 16 0.00 0.00
4:56 pm 16:56 Sunny 90 32.2 63 17.2 41 41 SSE 18 30 30.01 1016 10 16 0.00 0.00
5:56 pm 17:56 Sunny 89 31.7 64 17.5 43 43 SE 18 30 30.00 1016 10 16 0.00 0.00
6:56 pm 18:56 Sunny 88 31 64 17.6 45 45 ESE 17 28 30.00 1016 10 16 0.00 0.00
7:56 pm 19:56 Sunny 85 29.6 65 18.4 51 51 ESE 12 19 30.00 1016 10 16 0.00 0.00
8:56 pm 20:56 Sunny 83 28.1 64 17.6 53 53 E 12 19 30.00 1016 10 16 0.00 0.00
9:56 pm 21:56 Clear 81 27.2 59 14.9 47 47 ESE 13 20 30.01 1016 10 16 0.00 0.00
10:56 pm 22:56 Clear 79 26.2 59 14.9 50 50 ESE 15 24 30.04 1017 10 16 0.00 0.00
11:56 pm 23:56 Clear 77 25.1 61 16 57 57 SE 10 17 30.04 1017 10 16 0.00 0.00

Powered by AerisWeather